Regional Weather Roundup
Issued by NWS

Home | Current Version | Previous Version | Graphics & Text | Print | Product List | Glossary On
Versions: 1 2 3 4 5 6 7 8 9 10 11 12 13 14 15 16 17 18 19 20 21 22 23 24 25 26 27 28 29 30 31 32 33 34 35 36 37 38 39 40 41 42 43 44 45 46 47 48 49 50
000
ASUS43 KOAX 190910
RWRNE

WEATHER ROUNDUP FOR NEBRASKA
NATIONAL WEATHER SERVICE OMAHA NE
300 AM CST THU JAN 19 2017

NOTES: SATELLITE DATA IS BEING USED TO AUGMENT CLOUD COVER ABOVE
       12000 FEET.
       "FAIR" INDICATES FEW OR NO CLOUDS BELOW 12,000 FEET WITH NO
       SIGNIFICANT WEATHER AND/OR OBSTRUCTIONS TO VISIBILITY.

  * THESE STATIONS DO NOT REPORT WEATHER SUCH AS RAIN...SNOW OR FOG.

NEZ001>004-019>022-054>056-191000-
NEBRASKA PANHANDLE

CITY           SKY/WX    TMP DP  RH WIND       PRES   REMARKS
SCOTTSBLUFF    CLOUDY    27  20  75 NW7       29.64S WCI  19
ALLIANCE       CLOUDY    19  15  84 W7        29.63R WCI  10
CHADRON        CLOUDY    26  17  68 SW10      29.64S WCI  16
KIMBALL        CLOUDY    30  24  76 W8        29.64S WCI  23
SIDNEY         CLOUDY    27  20  75 W10       29.66R WCI  17
$$

NEZ057>060-069>072-079>082-191000-
SOUTHWEST NEBRASKA

CITY           SKY/WX    TMP DP  RH WIND       PRES   REMARKS
NORTH PLATTE   FOG       33  32  96 CALM      29.69S VSB 1/4
IMPERIAL       CLOUDY    27  24  89 NW6       29.66F WCI  20
LEXINGTON      FOG       38  37  96 S8        29.70S VSB 1/2 WCI  32
MCCOOK         FOG       33  33 100 S6        29.69S VSB 1/4 WCI  28
OGALLALA       CLOUDY    21  18  91 W6        29.67R WCI  13
$$

NEZ005>010-023>029-035>040-094-191000-
NORTH CENTRAL NEBRASKA

CITY           SKY/WX    TMP DP  RH WIND       PRES   REMARKS
VALENTINE      CLOUDY    30  24  78 SW9       29.64S WCI  22
AINSWORTH      CLEAR     32  32 100 S8        29.66R WCI  25
BROKEN BOW     FOG       36  36 100 S12       29.68S VSB 1/4 WCI  28
O`NEILL        CLEAR     37  36  98 S8        29.69S WCI  30
ORD            CLEAR     36  34  92 S9        29.69F WCI  29
THEDFORD       CLEAR     31  30  94 SE3       29.67R
$$

NEZ041-046>049-061>064-073>077-083>087-191000-
SOUTH CENTRAL NEBRASKA

CITY           SKY/WX    TMP DP  RH WIND       PRES   REMARKS
GRAND ISLAND   CLEAR     36  35  96 S12       29.74F WCI  28
AURORA         CLEAR     34  33  96 S8        29.76F WCI  27
HASTINGS       CLOUDY    36  35  96 S8        29.75F FOG     WCI  30
HEBRON         PTCLDY    37  34  90 S10       29.80S WCI  29
HOLDREGE       FOG       38  37  96 S8        29.72S VSB 1/4 WCI  32
KEARNEY *      CLOUDY    36  34  93 S10       29.73S WCI  28
YORK           PTCLDY    36  36 100 S9        29.78S WCI  29
$$

NEZ011>018-030>034-042>045-191000-
NORTHEAST NEBRASKA

CITY           SKY/WX    TMP DP  RH WIND       PRES   REMARKS
NORFOLK        CLEAR     33  30  88 SE6       29.76S WCI  28
ALBION         CLEAR     34  32  92 SE3       29.74F
BLAIR          CLEAR     37  34  88 S8        29.83S WCI  31
FREMONT        CLEAR     37  33  84 SE6       29.82S WCI  33
TEKAMAH        CLEAR     34  32  92 SE9       29.83S WCI  27
WAYNE          PTCLDY    35  32  92 CALM      29.78S
$$

NEZ050>053-065>068-078-088>093-191000-
SOUTHEAST NEBRASKA

CITY           SKY/WX    TMP DP  RH WIND       PRES   REMARKS
LINCOLN        PTCLDY    36  33  89 S8        29.83S WCI  30
OMAHA EPPLEY   PTCLDY    37  32  82 S10       29.85F WCI  30
BEATRICE       PTCLDY    37  35  90 S6        29.82F WCI  33
FALLS CITY     PTCLDY    37  35  92 E5        29.87F WCI  33
NEBRASKA CITY  CLOUDY    36  36 100 S9        29.85F FOG     WCI  29
PLATTSMOUTH    PTCLDY    35  32  89 SE12      29.85S FOG     WCI  27
$$

NEZ044-045-051>053-067-191000-
OMAHA AREA

CITY           SKY/WX    TMP DP  RH WIND       PRES   REMARKS
OMAHA EPPLEY   PTCLDY    37  32  82 S10       29.85F WCI  30
BLAIR          CLEAR     37  34  88 S8        29.83S WCI  31
FREMONT        CLEAR     37  33  84 SE6       29.82S WCI  33
MILLARD        PTCLDY    36  34  91 SE7       29.84F WCI  30
OFFUTT AFB     PTCLDY    35  35 100 SE7       29.84F WCI  29
PLATTSMOUTH    PTCLDY    35  32  89 SE12      29.85S FOG     WCI  27
WAHOO          FAIR      34  32  92 SE7       29.82S WCI  28
$$




USA.gov is the U.S. government's official web portal to all federal, state and local government web resources and services.